Regional Weather Roundup
Issued by NWS

Home | Current Version | Previous Version | Graphics & Text | Print | Product List | Glossary On
Versions: 1 2 3 4 5 6 7 8 9 10 11 12 13 14 15 16 17 18 19 20 21 22 23 24 25 26 27 28 29 30 31 32 33 34 35 36 37 38 39 40 41 42 43 44 45 46 47 48 49 50
000
ASUS43 KIND 241109
RWRIN

WEATHER ROUNDUP FOR INDIANA
NATIONAL WEATHER SERVICE INDIANAPOLIS IN
600 AM EST MON NOV 24 2014

NOTE: "FAIR" INDICATES FEW OR NO CLOUDS BELOW 12,000 FEET WITH NO
SIGNIFICANT WEATHER AND/OR OBSTRUCTIONS TO VISIBILITY.

* - STATION DOES NOT REPORT WEATHER SUCH AS PRECIPITATION OR FOG.

+ - STATION NOT QUALITY CONTROLLED BY THE NATIONAL WEATHER SERVICE.
    USE DATA WITH CAUTION...ESPECIALLY DEWPOINT AND RELATIVE
    HUMIDITY OBSERVATIONS.

INZ001>003-010>013-019-020-241200-
NORTHWEST INDIANA

CITY           SKY/WX    TMP DP  RH WIND       PRES   REMARKS
GARY /AIRPORT/ CLOUDY    50  50 100 SW8       29.09F
KNOX *+        CLOUDY    50  49  95 S10       29.12S
MICHIGAN CITY+ LGT RAIN  48  48 100 S6        29.10F
MONTICELLO +   LGT RAIN  53  52  99 S9        29.12F
RENSSELAER +   RAIN      50  50 100 S6        29.12F
VALPARAISO     CLOUDY    49  49 100 S9        29.10F FOG

$$

LMZ046-743>745-241200-
SOUTHERN LAKE MICHIGAN

STATION/POSITION TIME  TEMP WIND        PRES
                       AIR  DIR/SP/G
                 (UTC) (F)  (DEG/KT/KT) (MB)
MICHIGAN CITY    1100   49  180/ 10/ 11   N/A

$$

INZ004-005-014>016-021>024-241200-
NORTH CENTRAL INDIANA

CITY           SKY/WX    TMP DP  RH WIND       PRES   REMARKS
GOSHEN         CLOUDY    63  51  65 S16       29.12F
LOGANSPORT +   LGT RAIN  52  52 100 S10       29.14F
PERU/GRISSOM   LGT RAIN  54  54 100 S14       29.14F
ROCHESTER +    LGT RAIN  54  54 100 S9        29.14F
SOUTH BEND     LGT RAIN  51  49  92 SW10      29.12S FOG
WARSAW +       CLOUDY    52  52 100 S6        29.14S

$$

INZ006>009-017-018-025>027-241200-
NORTHEAST INDIANA

CITY           SKY/WX    TMP DP  RH WIND       PRES   REMARKS
ANGOLA *+      CLOUDY    52  43  71 SW10      29.13F
AUBURN +       CLOUDY    54  52  94 S10G17    29.16F
FORT WAYNE     LGT RAIN  55  52  89 SW20      29.18S
HUNTINGTON +   LGT RAIN  54  53  95 S9        29.17S

$$

INZ028-029-035-036-043>045-051>053-241200-
WEST CENTRAL INDIANA

CITY           SKY/WX    TMP DP  RH WIND       PRES   REMARKS
GREENCASTLE +  CLOUDY    55  54  94 S14G23    29.17F
LAFAYETTE      CLOUDY    53  52  96 S7        29.12F
TERRE HAUTE    MOCLDY    54  51  90 SW9       29.17S

$$

INZ030>032-037>040-046>048-054>057-064-065-241200-
CENTRAL INDIANA

CITY           SKY/WX    TMP DP  RH WIND       PRES   REMARKS
CP ATTERBURY + LGT RAIN  59  54  82 S15       29.22F
FRANKFORT +    RAIN     N/A N/A N/A S10G17    29.17S
INDIANAPOLIS   MOCLDY    55  53  93 S18G28    29.17F
-EAGLE CREEK   CLOUDY    57  54  89 S12G21    29.17F
KOKOMO *+      MOCLDY    54  52  94 S14       29.16F
MARION +       RAIN      54  53  95 SW15G23   29.18F
MT COMFORT *+  CLOUDY    55 N/A N/A S14G21    29.21S
SHELBYVILLE    CLOUDY    59  54  83 S20G28    29.21F

$$

INZ033-034-041-042-049-050-058-059-241200-
EAST CENTRAL INDIANA

CITY           SKY/WX    TMP DP  RH WIND       PRES   REMARKS
MUNCIE         CLOUDY    57  54  89 S15G24    29.19F

$$

INZ060-061-067>069-081>083-085>088-241200-
SOUTHWEST INDIANA

CITY           SKY/WX    TMP DP  RH WIND       PRES   REMARKS
EVANSVILLE     CLOUDY    60  54  80 SW21      29.27R
HUNTINGBURG *+ CLOUDY    59  54  82 S21G29    29.27S
WASHINGTON +   LGT RAIN  58  58  99 SW21G40   29.22R

$$

INZ062-063-066-070>080-084-089>092-241200-
SOUTH CENTRAL AND SOUTHEAST INDIANA

CITY           SKY/WX    TMP DP  RH WIND       PRES   REMARKS
BLOOMINGTON    TSTM      57  53  86 S21G32    29.21F
SEYMOUR +      PTCLDY    61  55  82 S17G23    29.25

$$




USA.gov is the U.S. government's official web portal to all federal, state and local government web resources and services.